Clermont County, Batavia, OH

11:51 AM EST on December 11, 2019 (GMT -0500)
Clermont County, Batavia

Weather History for KI69 - October, 2019

Change the Weather History Date:

Wednesday, October 30, 2019

  Actual Average (WUND) Record (WUND)
Temperature  
Mean Temperature 53 °F -  
Max Temperature 59 °F - - (-1)
Min Temperature 47 °F - - (-1)
Degree Days  
Heating Degree Days 12    
Growing Degree Days 3 (Base 50)    
Moisture  
Dew Point 53 °F    
Average Humidity 97    
Maximum Humidity 100    
Minimum Humidity 89    
Precipitation  
Precipitation 0.02 in - - ()
Sea Level Pressure  
Sea Level Pressure 30.05 in    
Wind  
Wind Speed 1 mph (ESE)    
Max Wind Speed 8 mph    
Max Gust Speed -    
Visibility 6 miles    
Events Rain    
Averages and records for this station are not official NWS values.
T = Trace of Precipitation, MM = Missing Value Source: NWS Daily Summary

Daily Weather History Graph

Daily Weather History Graph

Search for Another Location

Airport or City:

Astronomy

Oct. 30, 2019 Rise Set
Actual Time 8:01 AM EDT 6:38 PM EDT
Civil Twilight 7:34 AM EDT 7:06 PM EDT
Nautical Twilight 7:02 AM EDT 7:37 PM EDT
Astronomical Twilight 6:31 AM EDT 8:08 PM EDT
Moon 10:43 AM EDT (10/30) 8:46 PM EDT (10/30)
Length of Visible Light 11h 31m
Length of Day
10h 36m
Waxing Crescent, 8% of the Moon is Illuminated
Oct 30
Waxing Crescent
Nov 4
First Quarter
Nov 12
Full
Nov 19
Last Quarter
Nov 26
New

Hourly Weather History & Observations

Time (EDT) Temp. Dew Point Humidity Pressure Visibility Wind Dir Wind Speed Gust Speed Precip Events Conditions
12:19 AM 48.6 °F 48.2 °F 99% 30.19 in 4.0 mi Calm Calm - N/A   Clear
12:37 AM 48.2 °F 47.8 °F 99% 30.20 in 7.0 mi Calm Calm - N/A   Clear
12:56 AM 48.2 °F 47.5 °F 97% 30.21 in 7.0 mi Calm Calm - N/A   Clear
1:15 AM 48.2 °F 47.3 °F 97% 30.21 in 7.0 mi Calm Calm - N/A   Clear
1:59 AM 47.7 °F 47.1 °F 98% 30.20 in 5.0 mi Calm Calm - N/A   Mostly Cloudy
2:17 AM 47.3 °F 46.9 °F 99% 30.19 in 4.0 mi Calm Calm - N/A   Mostly Cloudy
2:35 AM 47.5 °F 47.3 °F 99% 30.19 in 4.0 mi Calm Calm - N/A   Scattered Clouds
2:56 AM 48.0 °F 47.8 °F 99% 30.19 in 5.0 mi Calm Calm - N/A   Scattered Clouds
3:15 AM 47.8 °F 47.7 °F 99% 30.19 in 4.0 mi Calm Calm - N/A   Overcast
3:39 AM 49.5 °F 49.1 °F 99% 30.18 in 7.0 mi Calm Calm - N/A   Overcast
3:57 AM 49.5 °F 49.1 °F 99% 30.19 in 5.0 mi Calm Calm - N/A   Overcast
4:15 AM 50.0 °F 49.3 °F 97% 30.19 in 7.0 mi Calm Calm - N/A   Overcast
4:36 AM 50.0 °F 49.3 °F 97% 30.19 in 7.0 mi Calm Calm - N/A   Overcast
4:55 AM 49.3 °F 49.1 °F 99% 30.17 in 5.0 mi Calm Calm - N/A   Overcast
5:19 AM 49.6 °F 49.1 °F 98% 30.17 in 7.0 mi Calm Calm - N/A   Overcast
5:37 AM 50.4 °F 49.5 °F 97% 30.19 in 7.0 mi Calm Calm - N/A   Overcast
5:55 AM 50.5 °F 49.5 °F 96% 30.18 in 7.0 mi Calm Calm - N/A   Overcast
6:15 AM 50.2 °F 49.3 °F 97% 30.17 in 7.0 mi Calm Calm - N/A   Overcast
6:36 AM 50.4 °F 49.5 °F 97% 30.17 in 7.0 mi Calm Calm - N/A   Overcast
6:59 AM 50.4 °F 49.5 °F 97% 30.17 in 7.0 mi Calm Calm - N/A   Mostly Cloudy
7:17 AM 50.4 °F 49.5 °F 97% 30.17 in 7.0 mi Calm Calm - N/A   Overcast
7:35 AM 50.5 °F 49.6 °F 97% 30.16 in 7.0 mi Calm Calm - N/A   Overcast
7:55 AM 51.1 °F 50.0 °F 96% 30.16 in 10.0 mi Calm Calm - N/A   Overcast
8:15 AM 51.4 °F 50.2 °F 95% 30.16 in 10.0 mi Calm Calm - N/A   Overcast
8:39 AM 51.8 °F 50.0 °F 94% 30.16 in 10.0 mi Calm Calm - N/A   Overcast
8:57 AM 52.3 °F 50.0 °F 92% 30.16 in 10.0 mi East 5.8 mph - N/A   Overcast
9:15 AM 52.7 °F 50.2 °F 91% 30.14 in 10.0 mi ENE 4.6 mph - N/A   Scattered Clouds
9:35 AM 53.1 °F 50.4 °F 91% 30.14 in 10.0 mi East 5.8 mph - N/A   Clear
9:55 AM 53.6 °F 50.4 °F 89% 30.14 in 10.0 mi East 4.6 mph - N/A   Clear
10:18 AM 53.6 °F 50.4 °F 89% 30.13 in 10.0 mi East 4.6 mph - N/A Rain Light Rain
10:37 AM 53.2 °F 51.1 °F 92% 30.10 in 7.0 mi East 5.8 mph - N/A Rain Rain
10:55 AM 52.7 °F 51.3 °F 95% 30.08 in 5.0 mi East 5.8 mph - N/A Rain Rain
11:15 AM 53.6 °F 51.8 °F 94% 30.09 in 7.0 mi ESE 3.5 mph - N/A Rain Light Rain
11:35 AM 53.6 °F 52.0 °F 94% 30.08 in 7.0 mi ESE 4.6 mph - N/A Rain Light Rain
11:58 AM 53.6 °F 52.5 °F 96% 30.07 in 7.0 mi ESE 4.6 mph - N/A Rain Light Rain
12:17 PM 53.8 °F 52.9 °F 97% 30.08 in 5.0 mi Calm Calm - N/A Rain Rain
12:35 PM 54.0 °F 52.9 °F 96% 30.08 in 7.0 mi ESE 3.5 mph - N/A Rain Light Rain
12:55 PM 54.5 °F 53.6 °F 97% 30.05 in 7.0 mi East 8.1 mph - N/A   Light Drizzle
1:15 PM 54.7 °F 53.8 °F 97% 30.03 in 7.0 mi ESE 4.6 mph - N/A   Overcast
1:38 PM 55.6 °F 54.3 °F 96% 30.01 in 10.0 mi East 3.5 mph - N/A   Overcast
1:56 PM 55.9 °F 54.7 °F 96% 30.01 in 7.0 mi Calm Calm - N/A Rain Light Rain
2:15 PM 56.3 °F 54.9 °F 95% 30.01 in 7.0 mi Calm Calm - N/A Rain Light Rain
2:35 PM 56.3 °F 55.2 °F 96% 30.00 in 7.0 mi Calm Calm - 0.01 in Rain Light Rain
2:55 PM 56.3 °F 55.4 °F 97% 29.99 in 5.0 mi Calm Calm - 0.01 in Rain Rain
3:36 PM 56.3 °F 56.3 °F 100% 29.96 in 2.5 mi Calm Calm - N/A Rain Light Rain
3:55 PM 56.3 °F 56.3 °F 100% 29.96 in 2.0 mi Calm Calm - N/A Rain Heavy Rain
4:15 PM 56.7 °F 56.5 °F 99% 29.96 in 1.8 mi Calm Calm - N/A Rain Heavy Rain
4:35 PM 56.7 °F 56.5 °F 99% 29.95 in 2.0 mi Calm Calm - N/A Rain Heavy Rain
4:58 PM 56.5 °F 56.5 °F 100% 29.94 in 1.8 mi Calm Calm - N/A Rain Rain
5:16 PM 56.5 °F 56.5 °F 100% 29.93 in 2.0 mi Calm Calm - N/A Rain Rain
5:35 PM 56.7 °F 56.7 °F 100% 29.92 in 2.5 mi Calm Calm - N/A Rain Rain
5:56 PM 56.8 °F 56.8 °F 100% 29.92 in 4.0 mi Calm Calm - N/A Rain Light Rain
6:15 PM 56.8 °F 56.8 °F 100% 29.92 in 5.0 mi Calm Calm - N/A Rain Rain
6:38 PM 56.8 °F 56.8 °F 100% 29.90 in 3.0 mi ESE 6.9 mph - N/A Rain Rain
6:56 PM 56.8 °F 56.8 °F 100% 29.90 in 5.0 mi SE 5.8 mph - N/A Rain Light Rain
7:15 PM 57.2 °F 57.0 °F 99% 29.89 in 10.0 mi SE 4.6 mph - N/A Rain Light Rain
7:35 PM 56.8 °F 56.8 °F 100% 29.87 in 10.0 mi ESE 6.9 mph - N/A   Overcast
7:55 PM 57.2 °F 57.0 °F 99% 29.88 in 10.0 mi Calm Calm - N/A   Overcast
8:00 PM 57.2 °F 57.2 °F 100% 29.89 in 10.0 mi Calm Calm - N/A   Overcast
8:18 PM 57.4 °F 57.2 °F 99% 29.89 in 10.0 mi Calm Calm - N/A   Overcast
8:36 PM 57.6 °F 57.4 °F 99% 29.89 in 10.0 mi Calm Calm - N/A   Overcast
8:55 PM 57.7 °F 57.6 °F 99% 29.88 in 10.0 mi Calm Calm - 0.01 in   Light Drizzle
9:15 PM 58.1 °F 58.1 °F 100% 29.87 in 10.0 mi SSE 3.5 mph - N/A   Light Drizzle
9:39 PM 58.3 °F 58.1 °F 99% 29.87 in 4.0 mi Calm Calm - N/A   Overcast
9:58 PM 58.3 °F 58.3 °F 100% 29.87 in 2.5 mi Calm Calm - N/A   Overcast
10:16 PM 58.5 °F 58.5 °F 100% 29.87 in 4.0 mi Calm Calm - N/A   Overcast
10:35 PM 58.5 °F 58.5 °F 100% 29.87 in 4.0 mi Calm Calm - N/A   Overcast
10:55 PM 59.0 °F 59.0 °F 100% 29.87 in 5.0 mi Calm Calm - N/A   Overcast
11:19 PM 59.0 °F 59.0 °F 100% 29.87 in 1.5 mi Calm Calm - N/A   Overcast
11:38 PM 59.0 °F 59.0 °F 100% 29.86 in 1.2 mi Calm Calm - N/A   Overcast
11:56 PM 59.0 °F 59.0 °F 100% 29.86 in 0.8 mi Calm Calm - N/A   Overcast